Location: Harwich
(41.6860°N, 70.0760°W)
Time: 20:17:05
(UTC-04:00)

Cosmos 2228 - Visible Passes

Search period start: 23 July 2014 00:00
Search period end: 02 August 2014 00:00
Orbit: 595 x 626 km, 82.5° (Epoch: 23 July)

Date Brightness Start Highest point End Pass type
(mag) Time Alt. Az. Time Alt. Az. Time Alt. Az.
23 Jul 4.8 01:25:21 23° WNW 01:25:21 23° WNW 01:28:09 10° NNW visible
24 Jul 4.3 00:03:00 33° NE 00:03:00 33° NE 00:05:42 10° NNE visible
24 Jul 5.3 01:39:58 15° WNW 01:39:58 15° WNW 01:41:59 10° NW visible
25 Jul 4.0 00:17:36 44° NNE 00:17:36 44° NNE 00:20:34 10° N visible
25 Jul 5.5 22:55:13 11° ENE 22:55:13 11° ENE 22:55:36 10° ENE visible
26 Jul 4.2 00:32:11 39° NNW 00:32:11 39° NNW 00:35:13 10° N visible
26 Jul 5.0 23:09:48 18° ENE 23:09:48 18° ENE 23:11:37 10° NE visible
27 Jul 4.7 00:46:46 27° NW 00:46:46 27° NW 00:49:38 10° NNW visible
27 Jul 4.5 23:24:22 28° NE 23:24:22 28° NE 23:26:53 10° NNE visible
28 Jul 5.3 01:01:20 17° WNW 01:01:20 17° WNW 01:03:42 10° NNW visible
28 Jul 4.0 23:38:55 41° NNE 23:38:55 41° NNE 23:41:50 10° NNE visible
29 Jul 5.7 01:15:54 10° WNW 01:15:54 10° WNW 01:16:25 10° WNW visible
29 Jul 4.0 23:53:28 44° NNW 23:53:28 44° NNW 23:56:34 10° N visible
30 Jul 5.1 22:31:01 16° ENE 22:31:01 16° ENE 22:32:35 10° NE visible
31 Jul 4.5 00:07:59 32° NW 00:07:59 32° NW 00:11:04 10° N visible
31 Jul 4.5 22:45:32 25° ENE 22:45:32 25° ENE 22:48:01 10° NNE visible
01 Aug 5.1 00:22:30 21° WNW 00:22:30 21° WNW 00:25:17 10° NNW visible
01 Aug 3.9 23:00:02 40° NE 23:00:02 40° NE 23:03:04 10° NNE visible
